Probability
0 0 0 0 0 0 0 0 0 0 0 0 0 0 0 0 0 0 0 0 0 0 0 0 0 0 0 0 0 0 0 0 0 0 0 0 0 0 0 0 0 0 0 0
0 0 0 0 0 0 0 0 0 0 0 0 0 0 0 0 0 0 0 0 0 0 0 0 0 0 0 0 0 0 0 0 0 0 0 0 0 0 0 0 0 0 0 0
0 0 0 0 0 0 0 0 0 0 0 0 0 0 0 0 0 0 0 0 0 0 0 0 0 0 0 0 0 0 0 0 0 0 0 0 0 0 0 0 0 0 0 0
0 0 0 0 0 0 0 0 0 0 0 0 0 0 0 0 0 0 0 0 0 0 0 0 0 0 0 0 0 0 0 0 0 0 0 0 0 0 0 0 0 0 0 0
0 0 0 0 0 0 0 0 0 0 0 0 0 0 0 0 0 0 0 0 0 0 0 0 0 0 0 0 0 0 0 0 0 0 0 0 0 0 0 0 0 0 0 0
0 0 0 0 0 0 0 0 0 0 0 0 0 0 0 0 0 0 0 0 0 0 0 0 0 0 0 0 0 0 0 0 0 0 0 0 0 0 0 0 0 0 0 0
0 0 0 0 0 0 0 0 0 0 0 0 0 0 0 0 0 0 0 0 0 0 0 0 0 0 0 0 0 0 0 0 0 0 0 0 0 0 0 0 0 0 0 0
0 0 0 0 0 0 0 0 0 0 0 0 0 0 0 0 0 0 0 0 0 0 0 0 0 0 0 0 0 0 0 0 0 0 0 0 0 0 0 0 0 0 0 0
0 0 0 0 0 0 0 0 0 0 0 0 0 0 0 0 0 0 0 0 0 0 0 0 0 0 0 0 0 0 0 0 0 0 0 0 0 0 0 0 0 0 0 0
0 0 0 0 0 0 0 0 0 0 0 0 0 0 0 0 0 0 0 0 0 0 0 0 0 0 0 0 0 0 0 0 0 0 0 0 0 0 0 0 0 0 0 0
0 0 0 0 0 0 0 0 0 0 0 0 0 0 0 0 0 0 0 0 0 0 0 0 0 0 0 0 0 0 0 0 0 0 0 0 0 0 0 0 0 0 0 0
0 0 0 0 0 0 0 0 0 0 0 0 0 0 0 0 0 0 0 0 0 0 0 0 0 0 0 0 0 0 0 0 0 0 0 0 0 0 0 0 0 0 0 0
0 0 0 0 0 0 0 0 0 0 0 0 0 0 0 0 0 0 0 0 0 0 0 0 0 0 0 0 0 0 0 0 0 0 0 0 0 0 0 0 0 0 0 0
0 0 0 0 0 0 0 0 0 0 0 0 0 0 0 0 0 0 0 0 0 0 0 0 0 0 0 0 0 0 0 0 0 0 0 0 0 0 0 0 0 0 0 0
0 0 0 0 0 0 0 0 0 0 0 0 0 0 0 0 0 0 0 0 0 0 0 0 0 0 0 0 0 0 0 0 0 0 0 0 0 0 0 0 0 0 0 0
0 0 0 0 0 0 0 0 0 0 0 0 0 0 0 0 0 0 0 0 0 0 0 0 0 0 0 0 0 0 0 0 0 0 0 0 0 0 0 0 0 0 0 0
0 0 0 0 0 0 0 0 0 0 0 0 0 0 0 0 0 0 0 0 0 0 0 0 0 0 0 0 0 0 0 0 0 0 0 0 0 0 0 0 0 0 0 0
0 0 0 0 0 0 0 0 0 0 0 0 0 0 0 0 0 0 0 0 0 0 0 0 0 0 0 0 0 0 0 0 0 0 0 0 0 0 0 0 0 0 0 0
0 0 0 0 0 0 0 0 0 0 0 0 0 0 0 0 0 0 0 0 0 0 0 0 0 0 0 0 0 0 0 0 0 0 0 0 0 0 0 0 0 0 0 0
0 0 0 0 0 0 0 0 0 0 0 0 0 0 0 0 0 0 0 0 0 0 0 0 0 0 0 0 0 0 0 0 0 0 0 0 0 0 0 0 0 0 0 0
0 0 0 0 0 0 0 0 0 0 0 0 0 0 0 0 0 0 0 0 0 0 0 0 0 0 0 0 0 0 0 0 0 0 0 0 0 0 0 0 0 0 0 0
0 0 0 0 0 0 0 0 0 0 0 0 0 0 0 0 0 0 0 0 0 0 0 0 0 0 0 0 0 0 0 0 0 0 0 0 0 0 0 0 0 0 0 0
0 0 0 0 0 0 0 0 0 0 0 0 0 0 0 0 0 0 0 0 0 0 0 0 0 0 0 0 0 0 0 0 0 0 0 0 0 0 0 0 0 0 0 0
0 0 0 0 0 0 0 0 0 0 0 0 0 0 0 0 0 0 0 0 0 0 0 0 0 0 0 0 0 0 0 0 0 0 0 0 0 0 0 0 0 0 0 0
0 0 0 0 0 0 0 0 0 0 0 0 0 0 0 0 0 0 0 0 0 0 0 0 0 0 0 0 0 0 0 0 0 0 0 0 0 0 0 0 0 0 0 0
0 0 0 0 0 0 0 0 0 0 0 0 0 0 0 0 0 0 0 0 0 0 0 0 0 0 0 0 0 0 0 0 0 0 0 0 0 0 0 0 0 0 0 0
0 0 0 0 0 0 0 0 0 0 0 0 0 0 0 0 0 0 0 0 0 0 0 0 0 0 0 0 0 0 0 0 0 0 0 0 0 0 0 0 0 0 0 0
Height
5598 5598 5597 5597 5598 5599 5599 5599 5599 5601 5601 5602 5601 5600 5600 5600 5600 5601 5601 5601 5601 5600 5601 5601 5601 5601 5600 5600 5600 5600 5600 5600 5601 5601 5602 5604 5605 5606 5608 5609 5610 5610 5611 5612
5589 5589 5588 5588 5590 5590 5591 5591 5591 5591 5593 5594 5592 5591 5591 5591 5591 5592 5592 5592 5592 5591 5591 5591 5591 5591 5591 5591 5591 5590 5590 5591 5591 5592 5593 5594 5596 5597 5598 5599 5599 5600 5601 5601
5580 5580 5579 5580 5583 5582 5582 5583 5583 5583 5585 5584 5584 5583 5583 5583 5583 5583 5583 5583 5583 5582 5582 5582 5582 5581 5581 5581 5581 5581 5581 5582 5582 5583 5584 5585 5586 5587 5588 5589 5589 5590 5590 5591
5570 5572 5570 5575 5574 5574 5573 5574 5574 5574 5575 5575 5575 5574 5574 5574 5574 5574 5574 5574 5573 5573 5572 5572 5572 5572 5571 5571 5571 5572 5572 5573 5573 5574 5575 5576 5577 5577 5578 5578 5579 5579 5580 5580
5562 5561 5562 5565 5565 5565 5564 5565 5566 5565 5565 5565 5565 5565 5565 5565 5564 5564 5564 5564 5564 5563 5563 5563 5562 5562 5562 5562 5562 5562 5563 5563 5564 5565 5566 5566 5567 5567 5568 5568 5568 5568 5569 5569
5554 5553 5554 5558 5557 5555 5555 5555 5557 5556 5556 5556 5555 5556 5557 5556 5555 5555 5555 5555 5555 5554 5554 5553 5553 5552 5552 5553 5553 5553 5554 5554 5555 5555 5556 5556 5557 5557 5557 5557 5557 5557 5557 5557
5545 5544 5546 5548 5547 5547 5547 5548 5548 5547 5547 5547 5547 5547 5547 5547 5547 5546 5546 5546 5545 5545 5545 5544 5543 5543 5543 5543 5543 5544 5544 5545 5545 5546 5546 5546 5547 5547 5547 5547 5547 5547 5547 5546
5537 5537 5541 5540 5539 5539 5538 5538 5538 5538 5538 5538 5538 5538 5538 5538 5538 5537 5537 5537 5536 5536 5535 5535 5534 5533 5533 5534 5534 5534 5535 5535 5535 5536 5536 5536 5536 5536 5536 5536 5536 5536 5536 5535
5530 5532 5532 5531 5530 5530 5529 5529 5529 5529 5529 5529 5529 5529 5529 5529 5528 5528 5528 5527 5527 5526 5526 5526 5525 5524 5524 5524 5524 5524 5525 5525 5526 5526 5526 5525 5525 5525 5525 5525 5525 5525 5525 5525
5522 5523 5523 5522 5521 5521 5521 5520 5520 5520 5520 5520 5520 5520 5520 5519 5519 5519 5519 5518 5517 5517 5517 5516 5516 5515 5515 5515 5515 5515 5515 5516 5516 5515 5515 5515 5515 5515 5515 5515 5515 5515 5515 5515
5514 5515 5514 5514 5513 5512 5512 5511 5511 5511 5511 5511 5511 5511 5510 5510 5510 5509 5509 5509 5508 5508 5507 5507 5506 5506 5506 5505 5505 5505 5506 5506 5506 5506 5506 5505 5505 5505 5505 5505 5505 5506 5505 5505
5506 5506 5505 5505 5504 5504 5503 5503 5503 5503 5503 5502 5502 5502 5501 5501 5500 5500 5500 5499 5499 5498 5498 5497 5497 5497 5496 5496 5496 5496 5496 5496 5496 5496 5496 5496 5496 5495 5495 5495 5495 5495 5495 5495
5497 5497 5496 5496 5495 5494 5494 5494 5494 5494 5494 5494 5493 5492 5492 5492 5491 5491 5490 5490 5489 5489 5489 5488 5488 5488 5488 5487 5487 5487 5487 5487 5487 5487 5486 5486 5486 5486 5485 5485 5485 5485 5485 5485
5488 5488 5487 5487 5487 5486 5486 5485 5485 5485 5485 5484 5484 5483 5483 5482 5482 5481 5481 5480 5480 5480 5480 5479 5479 5479 5479 5479 5479 5479 5478 5478 5477 5477 5477 5476 5476 5476 5475 5475 5475 5475 5475 5475
5480 5479 5479 5479 5478 5478 5477 5477 5476 5476 5476 5475 5475 5474 5474 5473 5473 5472 5472 5471 5471 5471 5471 5471 5471 5471 5470 5470 5471 5470 5470 5469 5469 5468 5468 5467 5466 5466 5466 5465 5465 5465 5465 5465
5472 5471 5471 5471 5470 5470 5469 5469 5468 5468 5467 5466 5466 5465 5465 5464 5464 5464 5463 5463 5463 5463 5463 5463 5463 5463 5463 5463 5463 5463 5462 5462 5461 5460 5460 5459 5458 5457 5457 5456 5456 5456 5457 5457
5464 5464 5464 5463 5463 5462 5461 5460 5459 5459 5458 5458 5458 5457 5457 5456 5456 5456 5455 5455 5456 5456 5456 5456 5456 5456 5455 5455 5455 5455 5455 5454 5454 5453 5452 5451 5450 5449 5449 5448 5448 5448 5448 5448
5457 5457 5456 5456 5455 5454 5453 5452 5451 5450 5450 5450 5449 5449 5449 5449 5449 5448 5448 5449 5449 5449 5449 5449 5449 5449 5449 5448 5448 5448 5448 5447 5447 5446 5445 5444 5443 5442 5442 5441 5441 5440 5440 5439
5450 5449 5449 5448 5447 5446 5445 5444 5443 5442 5442 5442 5441 5441 5441 5441 5441 5441 5441 5442 5442 5443 5443 5443 5442 5442 5442 5442 5442 5442 5441 5441 5440 5439 5438 5437 5436 5435 5434 5433 5433 5432 5431 5431
5443 5442 5441 5440 5439 5438 5437 5436 5435 5434 5434 5434 5433 5433 5433 5433 5434 5434 5435 5435 5435 5436 5436 5436 5436 5436 5436 5436 5435 5435 5435 5434 5434 5433 5432 5431 5430 5428 5427 5426 5425 5424 5423 5423
5436 5435 5434 5432 5431 5430 5429 5428 5427 5426 5426 5426 5425 5426 5426 5426 5426 5427 5427 5428 5429 5429 5429 5429 5429 5430 5430 5430 5430 5429 5429 5428 5428 5427 5426 5424 5423 5421 5420 5418 5417 5416 5416 5415
5429 5428 5426 5425 5424 5423 5421 5420 5419 5418 5418 5418 5418 5418 5418 5418 5419 5420 5420 5421 5422 5423 5423 5423 5424 5424 5424 5424 5424 5424 5423 5422 5421 5420 5419 5418 5416 5414 5413 5411 5410 5409 5408 5408
5423 5421 5420 5418 5417 5415 5414 5413 5412 5411 5411 5410 5410 5410 5411 5411 5412 5413 5414 5415 5415 5416 5417 5418 5418 5418 5419 5419 5419 5418 5417 5417 5416 5414 5413 5411 5409 5408 5406 5405 5403 5403 5402 5401
5417 5415 5413 5412 5410 5409 5408 5407 5406 5405 5404 5403 5403 5403 5404 5404 5405 5406 5407 5409 5410 5411 5412 5412 5413 5413 5413 5413 5413 5413 5412 5411 5410 5408 5406 5405 5403 5402 5400 5399 5398 5397 5396 5395
5411 5409 5407 5406 5404 5403 5402 5401 5400 5399 5398 5397 5397 5397 5398 5398 5399 5400 5402 5403 5404 5406 5407 5407 5408 5408 5408 5408 5408 5408 5407 5406 5404 5403 5401 5399 5398 5397 5395 5394 5393 5392 5391 5390
5406 5404 5402 5400 5398 5397 5396 5395 5394 5394 5393 5393 5392 5392 5393 5393 5394 5395 5397 5398 5399 5401 5402 5403 5403 5403 5403 5403 5403 5402 5401 5400 5399 5397 5396 5395 5393 5392 5390 5389 5388 5387 5386 5384
5400 5398 5397 5395 5394 5392 5391 5390 5390 5389 5389 5388 5388 5388 5389 5389 5390 5391 5393 5394 5395 5396 5397 5398 5398 5398 5398 5398 5398 5397 5396 5395 5394 5393 5391 5390 5388 5387 5386 5384 5383 5382 5380 5379
Wind_Speed
27 27 27 28 28 29 29 29 30 29 28 26 27 28 29 29 29 29 30 30 31 32 33 33 33 33 34 34 34 35 35 36 36 36 36 37 37 37 37 37 38 38 39 39
29 28 28 29 29 29 29 29 30 30 29 28 29 29 29 29 29 29 30 30 30 30 31 32 33 33 33 33 34 34 34 35 36 36 36 36 36 37 37 37 37 38 38 38
30 29 29 30 28 29 30 30 31 31 30 30 30 30 30 30 30 29 29 29 29 30 31 31 32 33 33 34 34 34 34 34 34 35 36 36 36 37 37 37 37 37 37 38
30 30 30 29 28 29 30 30 31 31 31 31 31 30 30 30 30 30 30 30 30 30 30 31 32 33 33 33 33 33 34 33 33 33 34 35 36 36 36 37 37 37 38 38
29 30 30 28 28 28 29 30 30 31 31 31 31 31 30 30 30 30 30 30 31 31 31 31 32 32 32 33 33 33 33 33 33 33 34 34 35 35 36 36 37 37 37 38
29 29 29 28 28 28 29 30 29 29 30 30 30 30 29 30 29 29 29 30 31 31 31 31 32 32 32 32 33 33 34 34 34 34 34 35 35 35 36 36 37 37 38 38
28 28 27 27 26 27 28 28 28 29 29 29 29 29 29 29 29 29 29 30 31 32 32 32 31 31 31 32 33 33 34 34 35 35 35 35 35 35 36 36 36 36 36 36
26 27 25 25 26 28 28 28 28 28 28 29 29 28 28 29 29 29 29 29 30 30 30 31 31 31 31 31 32 32 32 33 33 34 34 34 34 34 34 35 34 35 35 35
25 25 26 27 28 28 28 28 28 27 27 27 27 28 28 29 29 29 29 29 29 30 30 30 30 30 31 31 31 31 31 31 32 33 33 33 33 33 33 33 34 33 33 33
26 25 26 27 28 28 28 27 27 27 27 27 27 28 28 28 28 28 28 28 29 29 29 29 29 29 29 29 30 30 30 30 31 31 31 31 32 32 32 32 32 32 32 32
27 27 26 26 27 27 28 28 27 27 27 27 26 27 27 27 28 28 28 28 29 28 28 29 28 28 29 29 29 29 29 29 29 29 29 30 30 31 31 31 31 31 32 32
26 25 26 25 26 26 26 27 27 27 27 27 27 27 27 27 27 28 28 28 28 27 27 27 27 27 27 28 28 28 28 29 28 29 29 29 30 30 30 31 31 31 31 32
24 24 25 24 24 25 25 25 26 26 26 26 27 27 27 26 27 27 27 27 27 26 26 26 26 26 27 27 27 26 26 27 28 28 29 29 30 30 31 31 31 31 31 31
24 24 24 24 24 24 24 25 25 25 26 26 26 27 27 26 26 26 26 26 26 26 26 25 25 25 25 25 25 25 25 26 27 27 28 29 29 30 31 31 31 30 30 29
23 24 23 24 24 24 24 25 25 25 26 26 26 26 26 25 25 25 25 25 25 24 24 24 24 23 24 24 24 24 24 24 25 26 26 27 27 28 29 29 29 29 28 28
22 22 22 23 23 24 25 25 26 26 25 25 26 26 25 24 24 23 24 24 23 22 22 22 22 22 22 22 23 23 23 23 24 24 24 25 25 26 26 26 26 27 27 28
21 21 22 22 22 23 24 25 25 25 25 25 25 25 24 23 22 22 22 22 22 22 22 21 21 21 21 21 22 22 22 22 22 22 23 23 23 23 24 24 24 25 26 27
22 22 22 22 23 23 23 24 24 24 24 24 24 24 23 22 22 21 21 21 21 21 20 20 19 19 19 20 20 21 20 20 20 20 20 21 21 22 23 24 24 25 26 26
21 21 22 22 23 24 24 23 23 23 23 23 23 22 22 22 22 21 21 21 20 19 19 19 19 19 19 19 19 19 19 19 19 19 19 20 21 22 23 24 25 25 26 26
21 21 22 22 22 22 23 23 23 22 22 22 22 22 21 22 22 21 20 20 20 19 19 19 19 19 18 18 18 18 18 19 19 19 20 20 21 22 23 23 24 25 25 25
20 20 21 21 21 21 22 22 22 22 22 22 21 21 21 21 21 20 20 20 19 19 18 18 17 17 17 17 17 17 18 18 19 20 21 21 22 22 22 23 23 23 23 23
18 19 20 20 21 21 20 20 20 20 20 21 21 21 20 20 19 19 19 19 18 18 17 17 16 16 16 16 16 17 17 18 19 19 20 21 22 22 22 22 21 21 20 20
18 18 19 20 20 20 19 19 19 19 19 19 20 20 20 19 19 18 19 18 18 17 16 16 16 15 15 16 16 16 17 18 19 20 20 20 20 20 20 19 18 18 18 18
18 18 18 18 18 18 17 17 17 16 16 17 17 18 18 18 18 18 18 17 17 16 15 15 15 15 15 15 15 16 16 17 18 19 19 19 18 17 17 16 16 17 17 18
18 18 17 17 16 15 15 15 15 14 14 14 14 15 15 16 16 16 16 16 15 14 14 14 14 14 14 14 15 15 16 17 17 17 16 16 16 16 16 16 16 16 17 17
18 17 16 16 15 14 14 13 13 13 13 13 13 13 13 13 14 14 15 15 14 14 14 14 14 14 14 15 15 15 15 16 16 16 15 15 15 15 15 15 15 15 15 16
17 17 16 15 14 13 13 12 12 12 12 12 11 12 12 12 12 13 13 14 14 14 14 14 13 14 14 14 14 15 15 16 16 16 15 15 15 15 15 15 15 15 16 16
Wind_Direction
271 269 266 264 261 259 261 263 264 265 265 266 266 264 262 264 265 265 266 267 268 267 267 266 266 265 264 264 264 264 262 261 260 260 258 258 258 258 259 260 261 262 262 262
270 268 266 264 262 262 262 264 265 265 265 268 269 266 265 266 267 267 268 269 270 269 267 265 265 266 265 264 264 263 262 261 260 259 259 258 258 260 261 261 262 263 264 264
271 270 267 265 266 265 264 264 266 268 270 270 270 268 266 267 269 268 269 270 270 268 267 266 266 265 265 263 263 262 262 262 261 259 258 259 260 261 262 263 264 264 265 264
270 269 269 271 269 267 266 265 267 269 270 270 270 270 267 266 267 268 269 269 270 270 269 268 268 265 262 262 261 260 260 260 261 261 260 260 261 263 263 264 265 266 266 266
268 269 270 271 271 271 269 268 268 271 271 270 270 270 268 267 268 269 269 269 269 269 270 269 268 266 263 262 260 260 259 259 261 262 263 263 264 266 266 266 266 266 267 268
267 267 270 273 274 274 272 270 269 269 269 270 270 270 268 267 269 269 269 269 268 268 270 270 267 265 263 262 262 261 260 260 262 264 264 264 265 266 267 267 267 267 268 269
268 268 269 273 276 275 274 274 271 270 270 270 270 269 267 267 268 270 270 269 269 269 270 269 267 265 264 263 263 262 261 261 263 264 265 266 266 266 267 267 268 269 269 269
270 267 272 275 274 274 275 275 274 273 271 270 268 268 267 268 269 271 271 271 270 270 270 269 267 266 266 264 263 262 262 263 264 266 267 267 267 267 266 266 268 269 269 268
271 271 270 271 273 275 275 275 274 273 272 271 270 270 270 269 270 270 271 271 271 271 270 270 268 266 266 265 264 264 264 265 266 266 267 268 268 268 267 267 267 269 269 268
271 272 274 274 274 274 274 274 274 274 272 272 272 272 272 270 270 269 269 269 269 270 270 268 266 266 267 266 265 265 265 267 267 268 269 270 269 269 268 267 267 268 267 267
273 274 275 274 274 273 273 273 274 275 273 272 273 273 272 272 270 268 268 269 270 271 269 268 267 266 266 267 267 266 266 267 268 269 269 270 269 269 268 268 269 269 268 267
277 276 276 275 273 273 273 272 273 273 272 271 272 273 273 271 270 269 269 269 270 270 270 268 267 266 266 267 268 267 266 267 267 268 269 269 270 270 269 268 268 269 269 269
276 274 275 275 273 273 273 272 272 272 272 271 271 273 273 272 270 269 268 267 267 268 268 268 267 267 266 266 267 268 268 268 268 269 269 270 271 271 271 269 269 269 269 269
275 275 276 274 273 272 270 269 270 272 273 274 274 273 273 272 270 268 267 265 266 267 267 268 268 267 265 265 266 268 270 270 269 270 271 271 272 272 272 271 269 269 268 267
278 277 277 275 274 273 271 271 272 272 273 274 274 274 273 272 270 268 267 266 266 266 266 267 267 266 265 265 266 268 271 271 270 270 272 273 274 274 273 271 269 268 267 268
278 278 278 277 276 275 274 273 273 272 272 273 273 273 272 271 269 267 266 264 263 264 266 267 267 266 266 267 268 269 270 271 272 272 273 274 275 274 273 270 269 267 268 270
278 277 277 278 278 278 277 276 274 272 271 272 272 271 269 269 267 267 264 261 262 263 265 266 267 267 267 268 268 268 270 271 273 274 275 275 274 273 272 271 270 269 269 271
280 278 278 279 280 280 281 278 275 273 272 272 271 269 266 265 265 264 262 261 261 262 263 265 267 268 268 267 267 267 269 271 273 276 276 275 275 275 274 273 272 272 272 272
281 280 280 281 282 281 279 277 275 273 271 271 269 267 265 263 263 263 261 260 259 260 262 264 266 268 268 267 266 267 269 272 275 276 277 278 279 278 277 276 275 274 273 273
281 282 283 283 283 281 279 278 276 273 271 269 267 266 264 263 262 261 259 257 257 259 260 262 264 264 264 265 266 267 269 272 275 276 278 281 283 283 281 280 278 275 274 274
286 285 285 285 285 283 280 278 276 273 270 267 266 266 264 261 259 258 257 255 256 258 259 260 261 262 262 264 267 269 271 274 276 279 281 282 284 285 284 283 281 278 276 275
291 290 288 287 286 284 282 280 278 275 272 268 265 263 262 259 257 257 255 254 254 255 256 257 259 261 261 264 268 270 273 276 279 282 283 284 285 285 285 283 281 278 277 276
298 296 293 289 288 285 281 280 279 276 273 269 265 261 259 257 256 255 253 251 251 251 252 254 258 260 261 264 268 272 275 279 282 284 285 286 286 285 285 283 281 279 278 278
301 299 296 292 289 286 284 281 279 278 274 271 266 261 258 255 253 252 250 249 249 248 250 253 256 259 261 265 268 273 277 281 284 286 287 287 287 287 286 284 282 281 281 280
304 300 298 297 293 289 286 282 278 276 275 273 268 262 258 255 251 247 243 242 243 244 247 251 255 259 261 265 269 274 279 283 286 288 290 290 290 289 288 286 284 283 283 283
304 301 299 299 295 290 286 284 282 279 276 274 268 261 258 253 247 242 241 241 242 244 248 252 257 261 263 266 270 275 279 284 288 290 291 292 292 292 290 288 286 285 286 286
305 303 301 298 295 292 290 287 283 280 279 274 266 259 253 248 244 242 241 241 242 247 251 254 258 263 266 269 272 275 279 284 288 289 290 291 292 293 292 290 289 288 289 290